Location: Cypress Hills Dark-Sky Preserve - CHICO
(49.6176°N, 110.2634°W)
Time: 23:51:31
(UTC-06:00)

Amateur Radio Satellites - All Passes

Search period start: 27 May 2016 23:21
Search period end: 28 May 2016 23:21
Location: Cypress Hills Dark-Sky Preserve - CHICO, 49.6176°N, 110.2634°W

Satellite Date Start Highest point End Downlink Frequencies (MHz)
Time Altitude Azimuth
ISS 27 May 23:21:51 23:25:05 62° 155° (SSE) 23:28:19 145.825
SPROUT 27 May 23:32:38 23:35:52 21° 62° (ENE) 23:39:05 437.525
DELFI C3 27 May 23:36:49 23:38:42 13° 272° (W) 23:40:36 145.870
Cosmos 2499 27 May 23:44:59 23:52:19 79° 281° (W) 00:00:17 435.465 / 435.565
AISAT 27 May 23:49:03 23:53:30 69° 72° (ENE) 23:57:58 437.250
POPSAT HIP 1 27 May 23:51:31 23:54:04 16° 90° (E) 23:56:36 437.405
QB50P1 27 May 23:51:50 23:54:27 16° 90° (E) 23:57:03 145.935-145.965
QB50P2 27 May 23:54:02 23:56:54 18° 91° (E) 23:59:46 145.880/145.840
UKube-1 27 May 23:55:43 23:59:56 55° 71° (ENE) 00:04:12 .
POLYITAN 1 27 May 23:56:28 23:59:22 18° 91° (E) 00:02:15 437.675
TISAT 1 27 May 23:57:25 23:59:16 13° 56° (ENE) 00:01:06 437.305
GONETS M04 28 May 00:00:56 00:09:20 47° 291° (WNW) 00:17:44
50 SAT 28 May 00:08:37 00:12:13 68° 258° (WSW) 00:15:54 437.505
UNISAT 6 28 May 00:09:18 00:13:36 76° 287° (WNW) 00:17:57 437.425
NANOSAT C BR1 28 May 00:09:35 00:12:55 22° 93° (E) 00:16:14 145.865
TIGRISAT 28 May 00:16:48 00:21:03 68° 288° (WNW) 00:25:21 435.000
DANDE 28 May 00:17:51 00:26:17 73° 263° (W) 00:34:05 436.750
CUSAT 1 28 May 00:22:48 00:29:57 39° 273° (W) 00:36:09 437.405
ESTCUBE 1 28 May 00:28:53 00:33:07 39° 263° (W) 00:37:23 437.505/2401.250
RS-15 28 May 00:35:47 00:47:28 49° 26° (NNE) 00:59:21 29.354- 29.394
CUBEBUG 1 28 May 00:41:54 00:46:04 39° 262° (W) 00:50:16 437.445
PHONESAT 2.4 28 May 00:42:20 00:44:20 16° 177° (S) 00:46:18 2401.200-2431.200
DX 1 28 May 00:43:10 00:47:21 43° 261° (W) 00:51:34 434.975-435.025
DUCHIFAT 1 28 May 00:47:33 00:51:38 50° 100° (E) 00:55:42 145.980
SWISSCUBE 28 May 00:47:51 00:49:39 12° 52° (NE) 00:51:27 437.505
VELOX 1 28 May 00:49:51 00:53:54 34° 263° (W) 00:58:00 145.980
ANTELSAT 28 May 00:50:55 00:54:44 31° 294° (WNW) 00:58:33 437.575/2403.000
ITUPSAT 1 28 May 00:54:02 00:55:57 12° 52° (NE) 00:57:53 437.325
ISS 28 May 00:58:21 01:01:35 59° 355° (N) 01:04:50 145.825
BUGSAT 1 28 May 01:04:36 01:08:23 36° 97° (E) 01:12:06 437.445
SPROUT 28 May 01:07:20 01:11:31 50° 260° (W) 01:15:43 437.525
JAS-2 28 May 01:15:44 01:22:11 30° 88° (E) 01:28:04 435.910
BEESAT 28 May 01:15:47 01:19:02 19° 57° (ENE) 01:22:16 436.000
SO-50 28 May 01:24:53 01:29:42 58° 124° (SE) 01:34:30 436.795
POPSAT HIP 1 28 May 01:26:06 01:30:16 61° 288° (WNW) 01:34:24 437.405
QB50P1 28 May 01:26:28 01:30:38 60° 288° (WNW) 01:34:45 145.935-145.965
AISAT 28 May 01:27:47 01:30:28 16° 271° (W) 01:33:09 437.250
QB50P2 28 May 01:28:56 01:33:03 54° 289° (WNW) 01:37:09 145.880/145.840
TISAT 1 28 May 01:30:02 01:34:17 88° 76° (ENE) 01:38:32 437.305
POLYITAN 1 28 May 01:31:24 01:35:31 53° 289° (WNW) 01:39:35 437.675
UKube-1 28 May 01:33:18 01:36:20 18° 269° (W) 01:39:23 .
Cosmos 2499 28 May 01:41:45 01:47:01 20° 307° (NW) 01:52:34 435.465 / 435.565
NANOSAT C BR1 28 May 01:44:52 01:48:50 41° 292° (WNW) 01:52:46 145.865
UNISAT 6 28 May 01:48:21 01:49:36 11° 305° (NW) 01:50:52 437.425
Oscar 19 28 May 01:49:10 01:52:57 20° 90° (E) 01:56:42 437.125/150
DANDE 28 May 02:02:20 02:07:45 19° 284° (WNW) 02:12:59 436.750
GONETS M04 28 May 02:05:18 02:08:59 13° 318° (NW) 02:12:40
Gurwin Techsat 1B 28 May 02:15:10 02:18:21 16° 87° (E) 02:21:32 435.225
YUBILEINY 28 May 02:18:16 02:25:31 28° 59° (ENE) 02:32:44 435.215
PHONESAT 2.4 28 May 02:18:55 02:20:21 13° 193° (SSW) 02:21:47 2401.200-2431.200
SWISSCUBE 28 May 02:21:52 02:26:35 69° 72° (ENE) 02:31:21 437.505
DUCHIFAT 1 28 May 02:23:58 02:27:02 20° 299° (WNW) 02:30:05 145.980
ITUPSAT 1 28 May 02:28:13 02:32:57 70° 72° (ENE) 02:37:44 437.325
ISS 28 May 02:34:56 02:38:13 79° 15° (NNE) 02:41:29 145.825
BUGSAT 1 28 May 02:40:19 02:43:37 24° 296° (WNW) 02:46:53 437.445
RS-15 28 May 02:49:01 03:01:19 84° 235° (SW) 03:13:40 29.354- 29.394
BEESAT 28 May 02:51:34 02:56:18 72° 257° (WSW) 03:01:05 436.000
JAS-2 28 May 03:00:15 03:07:50 69° 291° (WNW) 03:14:39 435.910
Cosmos 2504 28 May 03:05:06 03:10:17 17° 51° (NE) 03:15:38 435.465 / 435.565
SO-50 28 May 03:06:02 03:10:28 33° 324° (NW) 03:14:54 436.795
TISAT 1 28 May 03:09:26 03:10:34 11° 273° (W) 03:11:42 437.305
Cosmos 2491 28 May 03:20:56 03:27:32 24° 77° (ENE) 03:34:06 435.465 / 435.565
Oscar 19 28 May 03:27:37 03:32:45 65° 289° (WNW) 03:37:50 437.125/150
KKS-1 28 May 03:40:24 03:44:44 52° 70° (ENE) 03:49:05 437.445
Gurwin Techsat 1B 28 May 03:53:39 03:59:01 85° 286° (WNW) 04:04:20 435.225
MOZHAYETS 4 28 May 03:58:53 04:03:20 57° 71° (ENE) 04:07:51
SWISSCUBE 28 May 04:01:47 04:04:53 17° 271° (W) 04:08:01 437.505
ITUPSAT 1 28 May 04:08:16 04:11:19 17° 271° (W) 04:14:23 437.325
ITAMSAT 1 28 May 04:09:58 04:15:09 58° 101° (ESE) 04:20:18 435.822/435.867
ISS 28 May 04:11:35 04:14:28 29° 214° (SW) 04:17:20 145.825
YUBILEINY 28 May 04:14:40 04:23:28 84° 263° (W) 04:32:15 435.215
STARS 28 May 04:14:50 04:19:11 61° 71° (ENE) 04:23:32 437.465
AO-7 28 May 04:29:30 04:37:10 38° 97° (E) 04:44:48 29.400- 29.500
JAS-2 28 May 04:46:24 04:51:29 20° 313° (NW) 04:56:17 435.910
SO-50 28 May 04:49:34 04:52:24 15° 348° (NNW) 04:55:12 436.795
HORYU 2 28 May 04:55:29 04:57:14 12° 87° (E) 04:58:58 437.375
Cosmos 2504 28 May 04:57:16 05:05:33 63° 75° (ENE) 05:14:15 435.465 / 435.565
RS-15 28 May 05:02:34 05:12:08 28° 259° (WSW) 05:21:44 29.354- 29.394
Oscar 19 28 May 05:08:56 05:11:08 13° 309° (NW) 05:13:18 437.125/150
Cosmos 2491 28 May 05:14:24 05:23:16 87° 278° (W) 05:32:09 435.465 / 435.565
KKS-1 28 May 05:18:16 05:21:36 20° 268° (W) 05:24:57 437.445
CUBESAT XI-V 28 May 05:25:26 05:29:59 54° 70° (ENE) 05:34:36 437.345
Gurwin Techsat 1B 28 May 05:34:57 05:38:14 17° 306° (NW) 05:41:30 435.225
MOZHAYETS 4 28 May 05:37:37 05:40:53 19° 270° (W) 05:44:10
ITAMSAT 1 28 May 05:50:04 05:54:17 25° 301° (WNW) 05:58:29 435.822/435.867
STARS 28 May 05:53:02 05:55:57 17° 270° (W) 05:58:52 437.465
YUBILEINY 28 May 06:12:59 06:18:56 21° 285° (WNW) 06:24:55 435.215
AO-7 28 May 06:22:09 06:30:22 62° 298° (WNW) 06:38:33 29.400- 29.500
HORYU 2 28 May 06:29:58 06:34:26 87° 285° (WNW) 06:38:53 437.375
SO-50 28 May 06:31:56 06:34:48 15° 13° (NNE) 06:37:37 436.795
NOAA 15 28 May 06:35:58 06:40:21 25° 93° (E) 06:44:41 137.62
Cubesat XI-IV 28 May 06:43:00 06:47:02 21° 91° (E) 06:51:02 437.490
NOAA 18 28 May 06:45:44 06:50:16 26° 93° (E) 06:54:48 137.9125
AO-85 28 May 06:50:36 06:55:54 54° 123° (ESE) 07:01:04 145.980
Cosmos 2504 28 May 06:51:12 06:58:31 36° 276° (W) 07:06:11 435.465 / 435.565
STRAND 1 28 May 06:57:23 07:02:11 44° 67° (ENE) 07:07:02 437.568
BRITE-PL 28 May 07:00:29 07:05:12 34° 93° (E) 07:09:33 437.365/2234.400
CUBESAT XI-V 28 May 07:04:08 07:07:42 21° 269° (W) 07:11:18 437.345
Cosmos 2491 28 May 07:14:36 07:21:31 25° 304° (NW) 07:28:27 435.465 / 435.565
LilacSat-2 28 May 07:19:33 07:23:05 36° 97° (E) 07:26:36 437.200
GOMX 1 28 May 07:22:28 07:26:24 25° 91° (E) 07:30:06 467.674
CUTE-I 28 May 07:28:23 07:33:35 48° 99° (E) 07:38:46 437.470
AIST 1 28 May 07:37:24 07:40:25 18° 65° (ENE) 07:43:23
Cosmos 2499 28 May 07:38:09 07:42:38 15° 47° (NE) 07:47:13 435.465 / 435.565
DOVE 4 28 May 08:08:02 08:12:01 32° 94° (E) 08:15:49 437.250
HORYU 2 28 May 08:08:13 08:10:19 13° 305° (NW) 08:12:27 437.375
GONETS M04 28 May 08:08:35 08:16:08 31° 61° (ENE) 08:23:36
SO-50 28 May 08:12:15 08:16:40 35° 37° (NE) 08:20:56 436.795
NOAA 15 28 May 08:15:16 08:20:27 54° 292° (WNW) 08:25:35 137.62
AO-7 28 May 08:16:01 08:21:37 20° 321° (NW) 08:27:14 29.400- 29.500
CANX-2 28 May 08:21:33 08:24:13 16° 89° (E) 08:26:51 2200.000
Cubesat XI-IV 28 May 08:22:16 08:27:34 66° 290° (WNW) 08:32:54 437.490
PRISM 28 May 08:23:30 08:27:33 53° 70° (ENE) 08:31:38 437.425
SEEDS 28 May 08:24:15 08:25:19 11° 86° (E) 08:26:24 437.485
NOAA 18 28 May 08:25:55 08:31:16 56° 292° (WNW) 08:36:37 137.9125
AO-85 28 May 08:31:36 08:36:39 38° 322° (NW) 08:41:30 145.980
CINEMA 3 28 May 08:34:19 08:37:17 19° 91° (E) 08:40:12 145.822/145.860
STRAND 1 28 May 08:37:05 08:41:32 30° 266° (W) 08:46:00 437.568
BRITE-PL 28 May 08:38:55 08:43:44 38° 295° (WNW) 08:48:11 437.365/2234.400
AUBIESAT-1 28 May 08:39:37 08:40:24 11° 95° (E) 08:41:10 437.475
M-CUBED/EXP-1 PRIME 28 May 08:45:49 08:47:51 15° 98° (E) 08:49:53 437.505
CUTE 1.7 + AOD 2 28 May 08:48:01 08:51:35 25° 93° (E) 08:55:08 437.475
LilacSat-2 28 May 08:54:17 08:57:13 22° 295° (WNW) 09:00:10 437.200
HO-68 28 May 08:58:42 09:05:22 40° 97° (E) 09:12:01 435.675
GOMX 1 28 May 09:00:11 09:04:43 43° 292° (WNW) 09:08:57 467.674
PCSat 28 May 09:04:11 09:06:16 12° 102° (ESE) 09:08:20 145.827
COMPASS 1 28 May 09:07:18 09:10:35 21° 92° (E) 09:13:51 437.405
CUTE-I 28 May 09:08:50 09:13:27 30° 299° (WNW) 09:18:03 437.470
AAUSAT CUBESAT 2 28 May 09:09:22 09:12:21 19° 91° (E) 09:15:18 437.432
AIST 1 28 May 09:14:08 09:18:26 57° 265° (W) 09:22:39
CUBEBUG 2 28 May 09:19:09 09:22:03 18° 91° (E) 09:24:58 437.445
Cosmos 2499 28 May 09:29:43 09:38:02 53° 72° (ENE) 09:46:39 435.465 / 435.565
UNISAT 6 28 May 09:36:58 09:40:12 21° 62° (ENE) 09:43:24 437.425
TIGRISAT 28 May 09:44:04 09:47:27 23° 63° (ENE) 09:50:49 435.000
DOVE 4 28 May 09:45:47 09:49:43 31° 295° (WNW) 09:53:28 437.250
UWE-3 28 May 09:45:51 09:49:15 24° 93° (E) 09:52:41 435.000/436.395/437.385
FUNcube-1 28 May 09:48:23 09:51:08 17° 90° (E) 09:53:54 145.935
SO-50 28 May 09:52:46 09:57:20 48° 238° (WSW) 10:01:44 436.795
CANX-2 28 May 09:56:14 10:00:30 62° 287° (WNW) 10:04:44 2200.000
SEEDS 28 May 09:57:24 10:01:41 90° 300° (WNW) 10:05:57 437.485
NOAA 15 28 May 09:57:36 09:59:07 11° 312° (NW) 10:00:37 137.62
PRISM 28 May 10:00:19 10:03:12 18° 269° (W) 10:06:05 437.425
Cubesat XI-IV 28 May 10:04:13 10:06:42 13° 309° (NW) 10:09:12 437.490
GONETS M04 28 May 10:05:09 10:13:50 74° 265° (W) 10:22:28
NOAA 18 28 May 10:08:51 10:10:50 12° 312° (NW) 10:12:49 137.9125
CINEMA 3 28 May 10:10:42 10:14:45 48° 290° (WNW) 10:18:43 145.822/145.860
O/OREOS (USA 219) 28 May 10:11:48 10:16:15 54° 111° (ESE) 10:20:42 437.305
AUBIESAT-1 28 May 10:12:02 10:15:20 58° 294° (WNW) 10:18:35 437.475
AO-85 28 May 10:15:08 10:18:31 17° 345° (NNW) 10:21:47 145.980
ANTELSAT 28 May 10:17:02 10:21:11 46° 70° (ENE) 10:25:18 437.575/2403.000
M-CUBED/EXP-1 PRIME 28 May 10:19:34 10:22:41 38° 296° (WNW) 10:25:44 437.505
CUTE 1.7 + AOD 2 28 May 10:23:34 10:27:33 38° 291° (WNW) 10:31:32 437.475
Oscar 11 28 May 10:30:10 10:34:25 50° 100° (E) 10:38:40 145.826/435.025
COMPASS 1 28 May 10:42:20 10:46:21 44° 290° (WNW) 10:50:22 437.405
PCSat 28 May 10:43:17 10:48:40 70° 121° (ESE) 10:54:06 145.827
AAUSAT CUBESAT 2 28 May 10:44:02 10:48:07 51° 289° (WNW) 10:52:12 437.432
ZACube-1 28 May 10:45:53 10:50:04 65° 102° (ESE) 10:54:16 437.345
HO-68 28 May 10:46:24 10:53:18 52° 297° (WNW) 11:00:10 435.675
POPSAT HIP 1 28 May 10:47:58 10:51:12 22° 62° (ENE) 10:54:27 437.405
HUMSAT D 28 May 10:48:02 10:51:04 19° 92° (E) 10:54:07 437.325/437.525
QB50P1 28 May 10:48:14 10:51:31 22° 63° (ENE) 10:54:47 145.935-145.965
QB50P2 28 May 10:50:39 10:54:04 24° 64° (ENE) 10:57:29 145.880/145.840
POLYITAN 1 28 May 10:53:06 10:56:32 25° 64° (ENE) 10:59:58 437.675
CUBEBUG 2 28 May 10:54:57 10:59:00 50° 289° (WNW) 11:03:03 437.445
NANOSAT C BR1 28 May 11:05:42 11:09:23 30° 66° (ENE) 11:13:04 145.865
DELFI C3 28 May 11:07:29 11:11:29 61° 101° (E) 11:15:30 145.870
UNISAT 6 28 May 11:12:24 11:16:38 50° 260° (W) 11:20:50 437.425
TIGRISAT 28 May 11:19:46 11:23:56 45° 261° (W) 11:28:04 435.000
UWE-3 28 May 11:21:59 11:25:52 38° 291° (WNW) 11:29:47 435.000/436.395/437.385
Cosmos 2499 28 May 11:23:09 11:31:02 44° 273° (W) 11:39:12 435.465 / 435.565
FUNcube-1 28 May 11:23:39 11:27:44 56° 288° (WNW) 11:31:52 145.935
BEESAT 3 28 May 11:27:29 11:30:10 18° 114° (ESE) 11:32:50 437.485
JAS-2 28 May 11:32:03 11:38:07 27° 52° (NE) 11:44:19 435.910
SEEDS 28 May 11:34:50 11:36:45 13° 303° (WNW) 11:38:39 437.485
DUCHIFAT 1 28 May 11:43:17 11:47:28 65° 72° (ENE) 11:51:39 145.980
CUSAT 1 28 May 11:46:14 11:52:28 42° 88° (E) 11:59:44 437.405
DANDE 28 May 11:49:41 11:54:15 22° 78° (ENE) 11:59:36 436.750
O/OREOS (USA 219) 28 May 11:52:16 11:55:59 24° 312° (NW) 11:59:41 437.305
ANTELSAT 28 May 11:54:51 11:58:09 21° 268° (W) 12:01:25 437.575/2403.000
AO-85 28 May 11:58:02 12:01:00 15° 10° (N) 12:03:50 145.980
BUGSAT 1 28 May 11:58:06 12:02:07 47° 70° (ENE) 12:06:08 437.445
GONETS M04 28 May 12:03:53 12:09:04 18° 288° (WNW) 12:14:16
Oscar 11 28 May 12:06:59 12:10:15 21° 298° (WNW) 12:13:32 145.826/435.025
ESTCUBE 1 28 May 12:16:45 12:20:52 32° 96° (E) 12:24:57 437.505/2401.250
POPSAT HIP 1 28 May 12:22:39 12:26:44 47° 261° (W) 12:30:50 437.405
HUMSAT D 28 May 12:22:57 12:26:57 48° 290° (WNW) 12:31:00 437.325/437.525
QB50P1 28 May 12:22:58 12:27:03 46° 261° (W) 12:31:08 145.935-145.965
ZACube-1 28 May 12:23:18 12:25:55 16° 300° (WNW) 12:28:33 437.345
QB50P2 28 May 12:25:40 12:29:41 41° 262° (W) 12:33:43 145.880/145.840
CUBEBUG 1 28 May 12:26:07 12:29:54 28° 94° (E) 12:33:40 437.445
DX 1 28 May 12:27:12 12:30:43 23° 93° (E) 12:34:12 434.975-435.025
PCSat 28 May 12:27:50 12:32:34 29° 323° (NW) 12:37:18 145.827
POLYITAN 1 28 May 12:28:10 12:32:10 40° 262° (W) 12:36:10 437.675
BEESAT 2 28 May 12:30:39 12:34:24 41° 122° (ESE) 12:38:11 435.950
VELOX 1 28 May 12:35:15 12:39:16 33° 96° (E) 12:43:14 145.980
HO-68 28 May 12:35:50 12:39:29 15° 319° (NW) 12:43:07 435.675
NANOSAT C BR1 28 May 12:41:17 12:45:05 32° 264° (W) 12:48:54 145.865
DELFI C3 28 May 12:43:24 12:45:56 16° 300° (WNW) 12:48:28 145.870
SPROUT 28 May 12:49:28 12:52:40 20° 92° (E) 12:55:50 437.525
BEESAT 3 28 May 13:03:32 13:07:26 62° 312° (NW) 13:11:24 437.485
50 SAT 28 May 13:07:13 13:10:57 82° 99° (E) 13:14:42 437.505
Oscar 19 28 May 13:09:49 13:14:44 45° 67° (ENE) 13:19:41 437.125/150
AISAT 28 May 13:11:14 13:15:41 76° 103° (ESE) 13:20:05 437.250
UKube-1 28 May 13:14:19 13:18:35 54° 101° (E) 13:22:48 .
JAS-2 28 May 13:14:38 13:22:10 89° 74° (ENE) 13:30:08 435.910
DUCHIFAT 1 28 May 13:21:13 13:23:36 15° 271° (W) 13:26:01 145.980
Cosmos 2491 28 May 13:23:47 13:29:05 17° 48° (NE) 13:34:19 435.465 / 435.565
CUSAT 1 28 May 13:27:51 13:34:28 51° 292° (WNW) 13:42:13 437.405
DANDE 28 May 13:30:02 13:35:58 81° 283° (WNW) 13:43:40 436.750
BUGSAT 1 28 May 13:34:37 13:37:44 20° 268° (W) 13:40:51 437.445
AO-85 28 May 13:38:37 13:43:01 31° 34° (NE) 13:47:05 145.980
Gurwin Techsat 1B 28 May 13:39:55 13:44:47 38° 65° (ENE) 13:49:41 435.225
AO-7 28 May 13:43:38 13:49:42 23° 42° (NE) 13:55:49 29.400- 29.500
ESTCUBE 1 28 May 13:53:34 13:57:41 34° 294° (WNW) 14:01:46 437.505/2401.250
ITAMSAT 1 28 May 13:54:29 13:58:32 24° 59° (ENE) 14:02:35 435.822/435.867
CUBEBUG 1 28 May 14:02:15 14:06:17 36° 293° (WNW) 14:10:16 437.445
DX 1 28 May 14:02:58 14:07:06 43° 292° (WNW) 14:11:13 434.975-435.025
BEESAT 2 28 May 14:08:47 14:12:22 31° 322° (NW) 14:15:58 435.950
VELOX 1 28 May 14:11:46 14:15:43 32° 295° (WNW) 14:19:38 145.980
PCSat 28 May 14:15:08 14:17:48 14° 348° (NNW) 14:20:29 145.827
SWISSCUBE 28 May 14:19:23 14:21:32 13° 87° (E) 14:23:40 437.505
SPROUT 28 May 14:24:46 14:28:52 47° 290° (WNW) 14:32:57 437.525
ITUPSAT 1 28 May 14:25:57 14:28:14 13° 87° (E) 14:30:31 437.325
50 SAT 28 May 14:42:54 14:44:08 11° 302° (WNW) 14:45:23 437.505
BEESAT 3 28 May 14:43:26 14:45:55 16° 334° (NNW) 14:48:24 437.485
TISAT 1 28 May 14:45:11 14:49:24 87° 106° (ESE) 14:53:34 437.305
AIST 2 28 May 14:47:36 14:51:42 69° 126° (SE) 14:55:51 435.215
BEESAT 28 May 14:47:51 14:51:29 21° 92° (E) 14:55:07 436.000
AISAT 28 May 14:48:57 14:51:38 16° 303° (WNW) 14:54:18 437.250
Oscar 19 28 May 14:49:42 14:54:14 30° 266° (W) 14:58:47 437.125/150
UKube-1 28 May 14:51:07 14:54:18 20° 300° (WNW) 14:57:28 .
JAS-2 28 May 15:02:20 15:08:09 24° 275° (W) 15:14:12 435.910
CUSAT 1 28 May 15:14:44 15:18:47 15° 316° (NW) 15:23:04 437.405
DANDE 28 May 15:15:32 15:20:22 21° 309° (NW) 15:25:56 436.750
AO-85 28 May 15:19:07 15:23:50 57° 237° (WSW) 15:28:06 145.980
Cosmos 2491 28 May 15:19:29 15:28:11 61° 74° (ENE) 15:36:46 435.465 / 435.565
Gurwin Techsat 1B 28 May 15:19:53 15:24:46 36° 264° (W) 15:29:41 435.225
YUBILEINY 28 May 15:26:51 15:33:24 25° 77° (ENE) 15:39:57 435.215
ITAMSAT 1 28 May 15:32:30 15:37:37 62° 258° (WSW) 15:42:47 435.822/435.867
AO-7 28 May 15:32:59 15:41:13 73° 65° (ENE) 15:49:32 29.400- 29.500
BEESAT 2 28 May 15:50:05 15:51:26 11° 344° (NNW) 15:52:46 435.950
SWISSCUBE 28 May 15:55:12 16:00:02 89° 109° (ESE) 16:04:51 437.505
HORYU 2 28 May 15:56:59 16:00:16 21° 60° (ENE) 16:03:33 437.375
PCSat 28 May 16:00:43 16:03:38 14° 15° (NNE) 16:06:32 145.827
ITUPSAT 1 28 May 16:01:55 16:06:46 89° 275° (W) 16:11:35 437.325
TISAT 1 28 May 16:22:30 16:24:26 13° 303° (WNW) 16:26:22 437.305
NOAA 15 28 May 16:24:20 16:26:29 12° 49° (NE) 16:28:38 137.62
BEESAT 28 May 16:24:55 16:29:38 56° 290° (WNW) 16:34:18 436.000
AIST 2 28 May 16:27:13 16:30:35 24° 327° (NNW) 16:34:00 435.215
Cubesat XI-IV 28 May 16:34:08 16:35:12 11° 47° (NE) 16:36:16 437.490
NOAA 18 28 May 16:38:53 16:41:51 15° 51° (NE) 16:44:49 137.9125
BRITE-PL 28 May 16:39:40 16:42:17 13° 52° (NE) 16:44:54 437.365/2234.400
KKS-1 28 May 17:03:16 17:07:40 56° 101° (E) 17:12:00 437.445
CUTE-I 28 May 17:16:32 17:20:29 22° 57° (ENE) 17:24:27 437.470
Cosmos 2491 28 May 17:16:53 17:24:37 37° 277° (W) 17:32:18 435.465 / 435.565
RS-15 28 May 17:18:02 17:28:18 42° 109° (ESE) 17:39:02 29.354- 29.394
YUBILEINY 28 May 17:20:26 17:29:08 85° 280° (W) 17:37:55 435.215
MOZHAYETS 4 28 May 17:26:18 17:30:58 75° 104° (ESE) 17:35:36
AO-7 28 May 17:27:35 17:34:42 31° 266° (W) 17:41:53 29.400- 29.500
HORYU 2 28 May 17:32:10 17:36:29 54° 259° (W) 17:40:51 437.375
SWISSCUBE 28 May 17:34:22 17:37:11 16° 305° (NW) 17:39:59 437.505
STARS 28 May 17:36:01 17:40:24 64° 102° (ESE) 17:44:43 437.465
ITUPSAT 1 28 May 17:41:10 17:43:56 15° 305° (NW) 17:46:41 437.325
Cosmos 2504 28 May 17:41:40 17:48:24 43° 87° (E) 17:55:34 435.465 / 435.565
PCSat 28 May 17:43:48 17:48:44 33° 40° (NE) 17:53:38 145.827
DOVE 4 28 May 17:43:53 17:44:54 11° 53° (NE) 17:45:54 437.250
HO-68 28 May 17:49:17 17:52:26 13° 39° (NE) 17:55:36 435.675
NOAA 15 28 May 18:00:01 18:05:15 61° 70° (ENE) 18:10:30 137.62
BEESAT 3 28 May 18:02:35 18:04:41 14° 22° (NNE) 18:06:47 437.485
LilacSat-2 28 May 18:05:40 18:09:07 34° 69° (ENE) 18:12:34 437.200
BEESAT 28 May 18:06:20 18:06:25 10° 310° (NW) 18:06:31 436.000
Cubesat XI-IV 28 May 18:08:59 18:14:07 51° 68° (ENE) 18:19:17 437.490
AIST 2 28 May 18:09:34 18:10:32 11° 350° (N) 18:11:31 435.215
BRITE-PL 28 May 18:14:07 18:19:43 61° 71° (ENE) 18:25:18 437.365/2234.400
NOAA 18 28 May 18:16:12 18:21:38 72° 71° (ENE) 18:27:06 137.9125
GOMX 1 28 May 18:33:27 18:38:40 48° 69° (ENE) 18:43:44 467.674
O/OREOS (USA 219) 28 May 18:38:24 18:42:28 32° 52° (NE) 18:46:30 437.305
KKS-1 28 May 18:40:37 18:43:52 20° 300° (WNW) 18:47:07 437.445
CUBESAT XI-V 28 May 18:54:39 18:59:25 74° 103° (ESE) 19:04:06 437.345
CUTE-I 28 May 18:54:44 19:00:03 71° 257° (WSW) 19:05:23 437.470
MOZHAYETS 4 28 May 19:04:37 19:07:36 17° 302° (WNW) 19:10:34
STRAND 1 28 May 19:06:46 19:07:04 10° 84° (E) 19:07:22 437.568
BEESAT 2 28 May 19:07:16 19:10:23 21° 32° (NNE) 19:13:31 435.950
STARS 28 May 19:13:22 19:16:20 18° 301° (WNW) 19:19:16 437.465
DOVE 4 28 May 19:16:37 19:21:40 57° 72° (ENE) 19:26:31 437.250
CANX-2 28 May 19:18:30 19:21:36 20° 62° (ENE) 19:24:43 2200.000
SEEDS 28 May 19:19:46 19:22:03 15° 58° (ENE) 19:24:21 437.485
YUBILEINY 28 May 19:20:45 19:27:24 24° 304° (NW) 19:34:07 435.215
PCSat 28 May 19:27:07 19:32:27 58° 241° (WSW) 19:37:45 145.827
AUBIESAT-1 28 May 19:27:45 19:31:25 37° 63° (ENE) 19:34:51 437.475
RS-15 28 May 19:28:26 19:39:59 75° 315° (NW) 19:52:13 29.354- 29.394
HO-68 28 May 19:31:46 19:38:30 47° 61° (ENE) 19:45:16 435.675
Cosmos 2504 28 May 19:34:49 19:41:46 45° 291° (WNW) 19:49:12 435.465 / 435.565
M-CUBED/EXP-1 PRIME 28 May 19:35:12 19:39:10 53° 66° (ENE) 19:42:50 437.505
BEESAT 3 28 May 19:39:27 19:43:19 47° 44° (NE) 19:47:08 437.485
CINEMA 3 28 May 19:39:30 19:43:36 32° 67° (ENE) 19:47:34 145.822/145.860
LilacSat-2 28 May 19:40:30 19:43:31 22° 267° (W) 19:46:33 437.200
NOAA 15 28 May 19:41:18 19:45:26 23° 268° (W) 19:49:37 137.62
CUTE 1.7 + AOD 2 28 May 19:44:46 19:48:29 31° 66° (ENE) 19:52:13 437.475
AIST 2 28 May 19:49:15 19:50:52 12° 15° (NNE) 19:52:29 435.215
Cubesat XI-IV 28 May 19:50:01 19:54:28 27° 267° (W) 19:58:58 437.490
BRITE-PL 28 May 19:53:54 19:58:33 26° 270° (W) 20:03:12 437.365/2234.400
NOAA 18 28 May 19:58:58 20:02:52 20° 270° (W) 20:06:47 137.9125
COMPASS 1 28 May 20:02:13 20:05:40 26° 64° (ENE) 20:09:08 437.405
AAUSAT CUBESAT 2 28 May 20:03:47 20:07:00 22° 63° (ENE) 20:10:15 437.432
GOMX 1 28 May 20:12:06 20:16:53 30° 267° (W) 20:21:35 467.674
ZACube-1 28 May 20:12:42 20:14:17 12° 57° (ENE) 20:15:51 437.345
O/OREOS (USA 219) 28 May 20:17:48 20:21:55 36° 252° (WSW) 20:25:59 437.305
CUBEBUG 2 28 May 20:21:13 20:24:51 27° 65° (ENE) 20:28:25 437.445
CUBESAT XI-V 28 May 20:33:07 20:36:15 18° 302° (WNW) 20:39:24 437.345
CUSAT 1 28 May 20:35:45 20:39:12 13° 41° (NE) 20:42:29 437.405
CUTE-I 28 May 20:39:34 20:41:04 11° 276° (W) 20:42:35 437.470
STRAND 1 28 May 20:42:04 20:47:13 68° 103° (ESE) 20:52:21 437.568
DANDE 28 May 20:42:23 20:42:55 10° 35° (NE) 20:43:28 436.750
BEESAT 2 28 May 20:44:41 20:48:42 77° 232° (SW) 20:52:40 435.950
UWE-3 28 May 20:46:54 20:50:43 33° 67° (ENE) 20:54:30 435.000/436.395/437.385
FUNcube-1 28 May 20:48:02 20:51:21 23° 64° (ENE) 20:54:38 145.935
SEEDS 28 May 20:53:02 20:57:13 76° 259° (W) 21:01:26 437.485
CANX-2 28 May 20:53:03 20:57:09 50° 261° (W) 21:01:18 2200.000
DOVE 4 28 May 20:55:36 20:59:39 23° 268° (W) 21:03:36 437.250
AUBIESAT-1 28 May 21:02:46 21:06:00 23° 259° (WSW) 21:09:05 437.475
M-CUBED/EXP-1 PRIME 28 May 21:11:17 21:13:57 17° 261° (W) 21:16:30 437.505
CINEMA 3 28 May 21:16:27 21:20:43 34° 264° (W) 21:24:50 145.822/145.860
GONETS M04 28 May 21:16:35 21:23:41 29° 80° (E) 21:30:46
BEESAT 3 28 May 21:17:35 21:20:47 24° 243° (WSW) 21:23:59 437.485
HO-68 28 May 21:19:32 21:26:17 44° 262° (W) 21:33:06 435.675
CUTE 1.7 + AOD 2 28 May 21:20:34 21:24:18 31° 265° (W) 21:28:05 437.475
AIST 2 28 May 21:26:53 21:30:37 31° 38° (NE) 21:34:20 435.215
Oscar 11 28 May 21:28:49 21:33:05 67° 73° (ENE) 21:37:23 145.826/435.025
Cosmos 2504 28 May 21:35:40 21:37:47 11° 318° (NW) 21:39:57 435.465 / 435.565
PRISM 28 May 21:35:55 21:39:58 46° 100° (E) 21:43:58 437.425
COMPASS 1 28 May 21:37:14 21:41:05 37° 263° (W) 21:44:59 437.405
AAUSAT CUBESAT 2 28 May 21:38:19 21:42:16 43° 262° (W) 21:46:16 437.432
HUMSAT D 28 May 21:43:32 21:46:49 24° 64° (ENE) 21:50:06 437.325/437.525
RS-15 28 May 21:43:41 21:54:42 42° 346° (NNW) 22:06:12 29.354- 29.394
ZACube-1 28 May 21:45:43 21:49:56 87° 79° (ENE) 21:54:07 437.345
AIST 1 28 May 21:47:20 21:51:42 66° 97° (E) 21:56:06
DELFI C3 28 May 21:57:20 22:01:16 64° 73° (ENE) 22:05:14 145.870
CUBEBUG 2 28 May 21:57:22 22:01:23 36° 263° (W) 22:05:20 437.445
Cosmos 2499 28 May 22:12:43 22:19:10 34° 83° (E) 22:26:01 435.465 / 435.565
CUSAT 1 28 May 22:16:14 22:23:45 44° 66° (ENE) 22:30:13 437.405
DANDE 28 May 22:21:24 22:28:48 32° 60° (ENE) 22:35:48 436.750
STRAND 1 28 May 22:22:05 22:25:57 22° 302° (WNW) 22:29:48 437.568
FUNcube-1 28 May 22:23:26 22:27:24 41° 262° (W) 22:31:22 145.935
UWE-3 28 May 22:23:33 22:27:15 28° 265° (W) 22:30:53 435.000/436.395/437.385
ISS 28 May 22:29:19 22:32:24 40° 150° (SSE) 22:35:30 145.825
AISAT 28 May 22:38:10 22:41:02 17° 58° (ENE) 22:43:53 437.250
UKube-1 28 May 22:40:00 22:41:43 12° 55° (NE) 22:43:25 .
UNISAT 6 28 May 22:59:49 23:03:17 23° 93° (E) 23:06:45 437.425
AIST 2 28 May 23:05:17 23:09:15 45° 238° (WSW) 23:13:12 435.215
TIGRISAT 28 May 23:06:48 23:10:23 25° 94° (E) 23:14:01 435.000
Oscar 11 28 May 23:07:12 23:09:41 15° 271° (W) 23:12:12 145.826/435.025
PRISM 28 May 23:11:47 23:15:01 22° 298° (WNW) 23:18:14 437.425
